UKV1260 KFLL-KEYW

Flight info

Callsign UKV1260
Flight time 0h 30m
Altitude 20000
Route MAYNR3 MAYNR FNTSY FNTSY1
Aircraft A20N/M-SDE3FGHIRWY/LB1

Departure

Time 2026-05-05 19:34
Airport Fort Lauderdale Hollywood International Airport (KFLL)

Arrival

Time 2026-05-05 20:04
Airport Key West International Airport (KEYW)
Time Latitude Longitude Altitude Speed Heading
2026-05-05 19:23 26.07489 -80.14324 17 ft 0 kts 259°
2026-05-05 19:25 26.07489 -80.14325 17 ft 0 kts 259°
2026-05-05 19:25 26.07486 -80.14351 18 ft 8 kts 268°
2026-05-05 19:25 26.07487 -80.14402 18 ft 12 kts 271°
2026-05-05 19:25 26.07505 -80.14499 20 ft 14 kts 320°
2026-05-05 19:26 26.07558 -80.14563 19 ft 13 kts 276°
2026-05-05 19:26 26.07560 -80.14683 18 ft 17 kts 269°
2026-05-05 19:26 26.07561 -80.14864 16 ft 20 kts 271°
2026-05-05 19:26 26.07562 -80.14969 14 ft 18 kts 270°
2026-05-05 19:27 26.07549 -80.15109 15 ft 14 kts 228°
2026-05-05 19:27 26.07485 -80.15124 15 ft 14 kts 179°
2026-05-05 19:27 26.07384 -80.15125 16 ft 16 kts 180°
2026-05-05 19:27 26.07268 -80.15126 18 ft 18 kts 181°
2026-05-05 19:28 26.07153 -80.15128 23 ft 16 kts 180°
2026-05-05 19:28 26.07044 -80.15129 28 ft 15 kts 181°
2026-05-05 19:28 26.06938 -80.15130 30 ft 15 kts 180°
2026-05-05 19:28 26.06849 -80.15129 32 ft 9 kts 180°
2026-05-05 19:29 26.06782 -80.15130 34 ft 8 kts 181°
2026-05-05 19:29 26.06721 -80.15131 36 ft 10 kts 184°
2026-05-05 19:29 26.06696 -80.15193 36 ft 11 kts 269°
2026-05-05 19:29 26.06696 -80.15299 35 ft 16 kts 270°
2026-05-05 19:30 26.06697 -80.15433 32 ft 18 kts 269°
2026-05-05 19:30 26.06697 -80.15594 26 ft 18 kts 274°
2026-05-05 19:30 26.06699 -80.15730 22 ft 16 kts 270°
2026-05-05 19:30 26.06678 -80.15817 20 ft 2 kts 195°
2026-05-05 19:31 26.06677 -80.15816 20 ft 0 kts 190°
2026-05-05 19:31 26.06669 -80.15818 19 ft 5 kts 190°
2026-05-05 19:32 26.06603 -80.15814 18 ft 10 kts 140°
2026-05-05 19:32 26.06591 -80.15761 20 ft 7 kts 101°
2026-05-05 19:32 26.06589 -80.15737 21 ft 0 kts 89°
2026-05-05 19:33 26.06589 -80.15518 30 ft 64 kts 90°
2026-05-05 19:33 26.06585 -80.14783 40 ft 123 kts 90°
2026-05-05 19:34 26.06583 -80.13713 413 ft 140 kts 91°
2026-05-05 19:34 26.06545 -80.12656 1011 ft 137 kts 89°
2026-05-05 19:34 26.06548 -80.11558 1433 ft 151 kts 85°
2026-05-05 19:35 26.06644 -80.08846 2405 ft 199 kts 87°
2026-05-05 19:35 26.06677 -80.07194 2887 ft 227 kts 88°
2026-05-05 19:35 26.06654 -80.05341 3482 ft 253 kts 98°
2026-05-05 19:35 26.05954 -80.03462 4147 ft 273 kts 128°
2026-05-05 19:36 26.04488 -80.02113 5090 ft 278 kts 157°
2026-05-05 19:36 26.02622 -80.01644 6124 ft 278 kts 184°
2026-05-05 19:36 26.00821 -80.02130 7112 ft 275 kts 210°
2026-05-05 19:36 25.99286 -80.03383 8107 ft 275 kts 223°
2026-05-05 19:37 25.97824 -80.04775 9099 ft 279 kts 221°
2026-05-05 19:37 25.96257 -80.06025 10079 ft 282 kts 216°
2026-05-05 19:37 25.94518 -80.07167 10646 ft 302 kts 212°
2026-05-05 19:37 25.92571 -80.08275 10976 ft 326 kts 209°
2026-05-05 19:38 25.90467 -80.09382 11507 ft 340 kts 208°
2026-05-05 19:38 25.88305 -80.10489 12329 ft 343 kts 208°
2026-05-05 19:38 25.86118 -80.11607 13141 ft 348 kts 208°
2026-05-05 19:38 25.83907 -80.12746 13935 ft 352 kts 208°
2026-05-05 19:39 25.81677 -80.13902 14597 ft 358 kts 209°
2026-05-05 19:39 25.79393 -80.15089 15251 ft 364 kts 209°
2026-05-05 19:39 25.77088 -80.16289 15893 ft 369 kts 209°
2026-05-05 19:39 25.74737 -80.17511 16552 ft 375 kts 209°
2026-05-05 19:40 25.72357 -80.18748 17184 ft 381 kts 210°
2026-05-05 19:40 25.69934 -80.20007 17800 ft 386 kts 210°
2026-05-05 19:40 25.67486 -80.21278 18386 ft 391 kts 210°
2026-05-05 19:40 25.65009 -80.22564 18964 ft 394 kts 210°
2026-05-05 19:41 25.62521 -80.23854 19556 ft 396 kts 210°
2026-05-05 19:41 25.60014 -80.25154 19873 ft 399 kts 210°
2026-05-05 19:41 25.57526 -80.26443 19979 ft 400 kts 210°
2026-05-05 19:41 25.55008 -80.27748 19994 ft 400 kts 210°
2026-05-05 19:42 25.52488 -80.29054 19994 ft 400 kts 210°
2026-05-05 19:42 25.49971 -80.30357 19996 ft 400 kts 210°
2026-05-05 19:42 25.47449 -80.31663 19994 ft 400 kts 210°
2026-05-05 19:42 25.44930 -80.32966 19996 ft 400 kts 210°
2026-05-05 19:43 25.42403 -80.34273 19996 ft 400 kts 210°
2026-05-05 19:43 25.39880 -80.35578 19994 ft 400 kts 210°
2026-05-05 19:43 25.37359 -80.36880 19996 ft 400 kts 210°
2026-05-05 19:43 25.34835 -80.38184 19998 ft 400 kts 210°
2026-05-05 19:44 25.32316 -80.39484 19998 ft 400 kts 210°
2026-05-05 19:44 25.29789 -80.40788 19997 ft 400 kts 210°
2026-05-05 19:44 25.27257 -80.42094 19999 ft 400 kts 210°
2026-05-05 19:44 25.24762 -80.43380 19999 ft 400 kts 209°
2026-05-05 19:45 25.22155 -80.44496 20001 ft 405 kts 201°
2026-05-05 19:45 25.19450 -80.45371 20000 ft 405 kts 201°
2026-05-05 19:45 25.16743 -80.46250 20002 ft 405 kts 201°
2026-05-05 19:45 25.14036 -80.47135 20000 ft 405 kts 201°
2026-05-05 19:46 25.11332 -80.48020 20003 ft 405 kts 201°
2026-05-05 19:46 25.08625 -80.48907 20007 ft 405 kts 201°
2026-05-05 19:46 25.05921 -80.49793 20003 ft 405 kts 201°
2026-05-05 19:46 25.03215 -80.50679 20005 ft 405 kts 201°
2026-05-05 19:47 25.00498 -80.51567 20004 ft 405 kts 201°
2026-05-05 19:47 24.97827 -80.52440 20003 ft 405 kts 201°
2026-05-05 19:47 24.95119 -80.53324 20003 ft 405 kts 201°
2026-05-05 19:47 24.92416 -80.54206 20005 ft 405 kts 201°
2026-05-05 19:48 24.89708 -80.55090 20005 ft 405 kts 201°
2026-05-05 19:48 24.87020 -80.56025 20003 ft 402 kts 207°
2026-05-05 19:48 24.84640 -80.57545 20009 ft 393 kts 223°
2026-05-05 19:48 24.82788 -80.59704 20007 ft 385 kts 240°
2026-05-05 19:49 24.81606 -80.62303 20010 ft 377 kts 256°
2026-05-05 19:49 24.81215 -80.64128 20006 ft 374 kts 265°
2026-05-05 19:49 24.80820 -80.67849 19480 ft 368 kts 266°
2026-05-05 19:49 24.80519 -80.70639 18761 ft 366 kts 266°
2026-05-05 19:50 24.80212 -80.73415 17922 ft 364 kts 266°
2026-05-05 19:50 24.79904 -80.76159 17089 ft 358 kts 265°
2026-05-05 19:50 24.79599 -80.78864 16272 ft 353 kts 265°
2026-05-05 19:50 24.79297 -80.81533 15481 ft 349 kts 264°
2026-05-05 19:51 24.78998 -80.84164 14709 ft 344 kts 264°
2026-05-05 19:51 24.78703 -80.86761 13968 ft 340 kts 264°
2026-05-05 19:51 24.78411 -80.89328 13158 ft 335 kts 263°
2026-05-05 19:51 24.78120 -80.91867 12342 ft 332 kts 263°
2026-05-05 19:52 24.77834 -80.94369 11557 ft 328 kts 263°
2026-05-05 19:52 24.77553 -80.96817 10794 ft 325 kts 263°
2026-05-05 19:52 24.77271 -80.99269 10141 ft 319 kts 263°
2026-05-05 19:52 24.76822 -81.01574 9938 ft 299 kts 253°
2026-05-05 19:53 24.76052 -81.03615 9736 ft 281 kts 244°
2026-05-05 19:53 24.75063 -81.05433 9222 ft 275 kts 240°
2026-05-05 19:53 24.74054 -81.07213 8611 ft 273 kts 240°
2026-05-05 19:53 24.73062 -81.08983 8170 ft 268 kts 240°
2026-05-05 19:54 24.72074 -81.10755 8038 ft 276 kts 240°
2026-05-05 19:54 24.71076 -81.12543 7986 ft 272 kts 240°
2026-05-05 19:54 24.70083 -81.14318 7990 ft 272 kts 240°
2026-05-05 19:54 24.69091 -81.16091 7985 ft 272 kts 240°
2026-05-05 19:55 24.68097 -81.17867 7983 ft 273 kts 240°
2026-05-05 19:55 24.67104 -81.19639 7986 ft 273 kts 240°
2026-05-05 19:55 24.66109 -81.21414 7985 ft 273 kts 240°
2026-05-05 19:55 24.65113 -81.23188 7987 ft 273 kts 239°
2026-05-05 19:56 24.63962 -81.24848 7975 ft 274 kts 231°
2026-05-05 19:56 24.62720 -81.26401 7825 ft 272 kts 231°
2026-05-05 19:56 24.61523 -81.27916 7510 ft 271 kts 231°
2026-05-05 19:56 24.60286 -81.29490 7127 ft 271 kts 231°
2026-05-05 19:57 24.59059 -81.31053 6750 ft 270 kts 231°
2026-05-05 19:57 24.58248 -81.32086 6501 ft 269 kts 231°
2026-05-05 19:57 24.56667 -81.34199 5952 ft 266 kts 240°
2026-05-05 19:57 24.55997 -81.36070 5534 ft 263 kts 261°
2026-05-05 19:58 24.55913 -81.38070 5130 ft 262 kts 271°
2026-05-05 19:58 24.55919 -81.40074 4745 ft 262 kts 270°
2026-05-05 19:58 24.55912 -81.42065 4334 ft 261 kts 270°
2026-05-05 19:58 24.55898 -81.44051 4071 ft 258 kts 270°
2026-05-05 19:59 24.55882 -81.46044 3992 ft 263 kts 270°
2026-05-05 19:59 24.55865 -81.48046 3986 ft 261 kts 270°
2026-05-05 19:59 24.55848 -81.50019 3987 ft 262 kts 270°
2026-05-05 19:59 24.55832 -81.52016 3990 ft 261 kts 270°
2026-05-05 20:00 24.55816 -81.53964 3987 ft 248 kts 270°
2026-05-05 20:00 24.55799 -81.55797 3964 ft 234 kts 270°
2026-05-05 20:00 24.55784 -81.57549 3736 ft 226 kts 270°
2026-05-05 20:00 24.55768 -81.59262 3483 ft 221 kts 270°
2026-05-05 20:01 24.55753 -81.60932 3248 ft 216 kts 270°
2026-05-05 20:01 24.55738 -81.62568 3028 ft 211 kts 270°
2026-05-05 20:01 24.55723 -81.64137 2978 ft 198 kts 270°
2026-05-05 20:01 24.55709 -81.65605 2958 ft 181 kts 270°
2026-05-05 20:02 24.55696 -81.66870 2878 ft 152 kts 270°
2026-05-05 20:02 24.55685 -81.67980 2633 ft 140 kts 270°
2026-05-05 20:02 24.55675 -81.69022 2350 ft 134 kts 270°
2026-05-05 20:02 24.55666 -81.70025 2057 ft 132 kts 271°
2026-05-05 20:03 24.55652 -81.71046 1728 ft 137 kts 270°
2026-05-05 20:03 24.55633 -81.72132 1305 ft 147 kts 270°
2026-05-05 20:03 24.55609 -81.73302 727 ft 155 kts 271°
2026-05-05 20:03 24.55606 -81.74477 266 ft 153 kts 273°
2026-05-05 20:04 24.55619 -81.75612 13 ft 139 kts 271°
2026-05-05 20:04 24.55610 -81.76385 12 ft 59 kts 269°
2026-05-05 20:04 24.55606 -81.76616 12 ft 17 kts 255°
2026-05-05 20:04 24.55519 -81.76600 12 ft 20 kts 102°
2026-05-05 20:05 24.55522 -81.76506 11 ft 16 kts 88°
2026-05-05 20:05 24.55521 -81.76344 10 ft 25 kts 89°
2026-05-05 20:05 24.55524 -81.76169 10 ft 24 kts 90°
2026-05-05 20:05 24.55526 -81.75973 10 ft 27 kts 90°
2026-05-05 20:06 24.55527 -81.75820 10 ft 9 kts 89°
2026-05-05 20:06 24.55528 -81.75738 10 ft 13 kts 89°
2026-05-05 20:06 24.55529 -81.75626 10 ft 16 kts 89°
2026-05-05 20:06 24.55531 -81.75506 10 ft 17 kts 89°
2026-05-05 20:07 24.55512 -81.75450 10 ft 4 kts 176°
2026-05-05 20:07 24.55481 -81.75428 12 ft 7 kts 149°
2026-05-05 20:07 24.55440 -81.75428 10 ft 0 kts 180°